Simultaneous Nadir Overpasses (SNOs) Predictions

Prediction of SNOs between GOES-15 and NOAA-20 Satellite Orbit:

Table of predicted SNOs for the next 14.0 days since TLE Epoch: 1/8/2022
Index Date Time (GOES-15) GOES-15 Lat,Lon NOAA-20 Lat,Lon Distance(km) Time Diff (sec)
1 01/08/2022 22:13:46 0.05,-128.29 -0.89,-132.46 475.18 80
2 01/09/2022 21:57:40 0.05,-128.31 0.14,-127.92 43.65 80
3 01/12/2022 09:58:00 -0.05,-128.34 0.04,-128.64 35.22 80
4 01/13/2022 09:41:54 -0.04,-128.35 -0.99,-124.11 483.20 80
5 01/14/2022 22:01:09 0.04,-128.36 -0.22,-129.40 118.92 80
6 01/15/2022 21:45:03 0.03,-128.37 0.82,-124.87 399.13 80
7 01/17/2022 10:04:10 -0.04,-128.38 0.33,-130.13 199.40 80
8 01/18/2022 09:48:03 -0.03,-128.38 -0.64,-125.58 318.23 80
9 01/19/2022 22:07:18 0.04,-128.38 -0.50,-130.89 284.96 80
10 01/20/2022 21:51:12 0.03,-128.38 0.48,-126.34 232.48 80
